New Palestine, Indiana
Current Conditions -  °F | °C
As of 6:15 AM on Tuesday 21 Oct 2014 (Local Time) from KMQJ Reporting Station
Overcast Overcast  
Wind Chill: 46°   Ceiling: 5000
Heat Index: 48°   Visibility: 10mi
Dew Point: 48°   Wind: 6mph
Humidity: 100%   Direction: 310°NW
Pressure: 30"   Gusts: NA
Location:  39.72°N, 85.89°W
Report Text: KMQJ 211015Z AUTO 31005KT 10SM OVC050 09/09 A3000 RMK AO1
Loading
Personal Weather Stations






























Interactive Weather Map
Tropical Storm Tracking
New forecast layout! Learn more

10-Day Weather Forecast

Advertisements
Track Severe Weather on mobile